Location: Burtsch�tz
(51.0528°N, 12.1764°E)
Time: 07:49:05
(UTC+00:00)

Meteor 2-15 Rocket - Pass Details

Date: 29 October 2020
Orbit: 938 x 957 km, 82.5° (Epoch: 01 December)

Event Time Altitude Azimuth Distance (km) Brightness Sun altitude
Rises 17:34:50 0° 178° (S) 3,624 7.5 -16.9°
Reaches altitude 10° 17:37:20 10° 175° (S) 2,681 6.8 -17.3°
Maximum altitude 17:43:23 65° 95° (E) 1,045 4.4 -18.3°
Drops below altitude 10° 17:49:29 10° 15° (NNE) 2,692 6.7 -19.2°
Sets 17:52:00 0° 13° (NNE) 3,639 7.4 -19.6°
